CW9688 Weather Reports


Display with metric or nautical units.
time (UTC)temp
F
wind
direction
speed
MPH
gust
MPH
rain 1hr
in
rain 24hr
in
rain mn
in
humidity
%
barometer
mb
20260509175804 73 7 7.0 14.0 0.00 0.00 0.00 26 1008.3
20260509174805 71 43 8.0 14.0 0.00 0.00 0.00 26 1008.3
20260509173304 71 39 13.0 20.0 0.00 0.00 0.00 27 1007.5
20260509172805 71 33 10.0 15.0 0.00 0.00 0.00 28 1007.5
20260509172306 72 67 8.0 17.0 0.00 0.00 0.00 27 1007.5
20260509171305 72 40 8.0 18.0 0.00 0.00 0.00 26 1007.5
20260509170805 72 10 9.0 15.0 0.00 0.00 0.00 27 1007.5
20260509170304 73 46 6.0 15.0 0.00 0.00 0.00 22 1007.5
20260509165804 73 69 3.0 12.0 0.00 0.00 0.00 21 1007.5
20260509165306 72 7 7.0 12.0 0.00 0.00 0.00 21 1007.5
20260509164804 72 28 4.0 8.0 0.00 0.00 0.00 21 1007.5
20260509164305 73 65 5.0 7.0 0.00 0.00 0.00 21 1007.5
20260509163805 72 98 2.0 6.0 0.00 0.00 0.00 23 1007.5
20260509163305 72 27 2.0 6.0 0.00 0.00 0.00 21 1007.5
20260509162307 71 355 3.0 6.0 0.00 0.00 0.00 24 1007.5
20260509160805 71 120 2.0 5.0 0.00 0.00 0.00 25 1007.5
20260509160304 71 359 3.0 5.0 0.00 0.00 0.00 25 1007.5
20260509155805 70 88 4.0 5.0 0.00 0.00 0.00 24 1007.5
20260509154804 70 71 4.0 6.0 0.00 0.00 0.00 25 1007.5
20260509154304 69 351 3.0 6.0 0.00 0.00 0.00 25 1007.5
20260509152805 69 290 4.0 6.0 0.00 0.00 0.00 25 1007.5
20260509150805 67 295 2.0 5.0 0.00 0.00 0.00 29 1007.5
20260509150304 66 306 2.0 6.0 0.00 0.00 0.00 32 1007.5
20260509145805 65 5 2.0 6.0 0.00 0.00 0.00 35 1007.5
20260509145306 64 262 1.0 6.0 0.00 0.00 0.00 37 1007.5
20260509141304 59 156 3.0 5.0 0.00 0.00 0.00 50 1007.5
20260509140804 58 96 1.0 5.0 0.00 0.00 0.00 54 1007.5
20260509140304 57 77 2.0 5.0 0.00 0.00 0.00 54 1007.5
20260509135306 55 63 1.0 2.0 0.00 0.00 0.00 60 1007.5
20260509134805 54 63 1.0 2.0 0.00 0.00 0.00 58 1007.5
20260509134305 54 63 0.0 1.0 0.00 0.00 0.00 61 1007.5
20260509133305 54 63 1.0 3.0 0.00 0.00 0.00 59 1007.5
20260509131305 53 229 2.0 3.0 0.00 0.00 0.00 57 1007.5
20260509125804 51 170 3.0 5.0 0.00 0.00 0.00 65 1007.5
20260509123805 50 227 1.0 2.0 0.00 0.00 0.00 64 1007.5
20260509123304 49 227 2.0 3.0 0.00 0.00 0.00 65 1007.5
20260509122804 48 227 2.0 3.0 0.00 0.00 0.00 67 1007.5
20260509122306 48 274 2.0 3.0 0.00 0.00 0.00 68 1007.5
20260509121304 48 5 1.0 3.0 0.00 0.00 0.00 69 1007.5
20260509120805 47 5 0.0 2.0 0.00 0.00 0.00 72 1007.5
20260509115805 47 44 2.0 5.0 0.00 0.00 0.00 73 1007.5
20260509114304 47 197 1.0 2.0 0.00 0.00 0.00 71 1007.5
20260509113805 47 197 0.0 1.0 0.00 0.00 0.00 70 1007.5
20260509113305 47 197 2.0 3.0 0.00 0.00 0.00 71 1007.5
20260509112805 47 197 2.0 3.0 0.00 0.00 0.00 73 1007.5
20260509111805 47 197 2.0 3.0 0.00 0.00 0.00 73 1007.5
20260509110805 46 82 2.0 3.0 0.00 0.00 0.00 74 1007.5
20260509105306 48 70 2.0 3.0 0.00 0.00 0.00 73 1007.5
20260509104304 48 206 1.0 2.0 0.00 0.00 0.00 72 1007.5
20260509100805 48 211 2.0 3.0 0.00 0.00 0.00 74 1007.5
20260509100305 47 357 2.0 3.0 0.00 0.00 0.00 74 1007.5
20260509093804 50 184 1.0 2.0 0.00 0.00 0.00 69 1007.5
20260509093305 50 184 0.0 2.0 0.00 0.00 0.00 69 1007.5
20260509091804 51 184 2.0 3.0 0.00 0.00 0.00 67 1007.5
20260509091305 51 223 2.0 3.0 0.00 0.00 0.00 67 1007.5
20260509090304 52 243 1.0 2.0 0.00 0.00 0.00 66 1007.5
20260509082306 53 226 1.0 3.0 0.00 0.00 0.00 63 1007.5
20260509081304 53 265 2.0 3.0 0.00 0.00 0.00 62 1007.5
20260509074805 56 240 3.0 3.0 0.00 0.00 0.00 56 1007.5
20260509074305 56 213 3.0 6.0 0.00 0.00 0.00 56 1007.5
20260509073805 57 237 2.0 6.0 0.00 0.00 0.00 55 1007.5
20260509073304 57 212 5.0 9.0 0.00 0.00 0.00 55 1007.5
20260509072805 57 218 4.0 6.0 0.00 0.00 0.00 55 1007.5
20260509070805 57 184 6.0 14.0 0.00 0.00 0.00 54 1007.5
20260509070304 57 183 7.0 12.0 0.00 0.00 0.00 54 1007.5
20260509065306 57 175 7.0 10.0 0.00 0.00 0.00 55 1007.5
20260509064804 57 184 7.0 12.0 0.00 0.00 0.00 55 1007.5
20260509063304 57 198 6.0 10.0 0.00 0.00 0.00 54 1007.5
20260509061804 57 185 5.0 8.0 0.00 0.00 0.00 54 1007.5
20260509061304 56 175 3.0 6.0 0.00 0.00 0.00 54 1007.5
20260509060305 56 178 3.0 7.0 0.00 0.00 0.00 54 1007.5
20260509055804 56 164 2.0 5.0 0.00 0.00 0.00 54 1007.5
20260509055306 57 177 3.0 6.0 0.00 0.01 0.00 54 1007.5
20260509054804 57 163 2.0 6.0 0.00 0.01 0.00 53 1007.5
20260509054304 57 174 3.0 7.0 0.00 0.01 0.00 53 1007.5
20260509053804 57 186 3.0 7.0 0.00 0.01 0.00 53 1007.5
20260509052805 57 179 4.0 7.0 0.00 0.01 0.00 53 1007.5
20260509052307 57 177 5.0 7.0 0.00 0.01 0.00 52 1007.5
20260509051305 57 170 3.0 8.0 0.00 0.01 0.00 52 1007.5
20260509050804 57 159 3.0 6.0 0.00 0.01 0.00 51 1007.5
20260509045306 57 170 3.0 7.0 0.00 0.01 0.00 52 1007.5
20260509044805 57 164 5.0 6.0 0.00 0.01 0.00 53 1007.5
20260509043304 57 135 3.0 5.0 0.00 0.01 0.00 53 1007.5
20260509042804 57 133 1.0 3.0 0.00 0.01 0.00 53 1007.5
20260509042307 57 143 1.0 3.0 0.00 0.01 0.00 53 1007.5
20260509041804 57 173 2.0 3.0 0.00 0.01 0.00 52 1007.5
20260509041305 57 160 2.0 6.0 0.00 0.01 0.00 51 1007.5
20260509035804 58 171 2.0 5.0 0.00 0.01 0.00 51 1007.5
20260509033304 58 173 3.0 7.0 0.00 0.01 0.00 50 1007.5
20260509031804 59 145 3.0 6.0 0.00 0.01 0.00 48 1007.5
20260509030804 58 131 4.0 6.0 0.00 0.01 0.00 49 1007.5
20260509025306 60 108 1.0 3.0 0.00 0.01 0.00 46 1007.5
20260509022306 62 81 2.0 3.0 0.00 0.01 0.00 42 1007.5
20260509021804 62 86 1.0 5.0 0.00 0.01 0.00 42 1007.5
20260509020304 64 81 3.0 6.0 0.00 0.01 0.00 41 1007.5
20260509015804 64 98 5.0 7.0 0.00 0.01 0.00 40 1007.5
20260509015306 64 95 3.0 5.0 0.00 0.01 0.00 40 1007.5
20260509014804 64 72 2.0 8.0 0.00 0.01 0.00 39 1007.5
20260509013804 65 81 4.0 6.0 0.00 0.01 0.00 38 1007.5
20260509011804 66 82 5.0 7.0 0.00 0.01 0.00 37 1007.5
20260509011304 66 61 3.0 8.0 0.00 0.01 0.00 36 1007.5
20260509010304 67 53 5.0 7.0 0.00 0.01 0.00 36 1007.5
20260509005805 67 69 4.0 7.0 0.00 0.01 0.00 36 1007.5
20260509004304 68 52 5.0 12.0 0.00 0.01 0.00 36 1008.9
20260509003804 68 54 2.0 5.0 0.00 0.01 0.00 35 1008.9
20260509003304 68 165 3.0 7.0 0.00 0.01 0.00 35 1008.9
20260509002804 68 113 5.0 7.0 0.00 0.01 0.00 36 1008.9
20260509001804 68 80 6.0 12.0 0.00 0.01 0.00 36 1008.9
20260509001304 68 97 9.0 13.0 0.00 0.01 0.00 35 1008.9
20260509000305 69 66 3.0 8.0 0.00 0.01 0.00 35 1008.9
20260508234305 69 60 6.0 10.0 0.00 0.01 0.00 35 1008.9
20260508232804 68 58 7.0 12.0 0.00 0.01 0.00 37 1008.9
20260508232307 68 72 2.0 8.0 0.00 0.01 0.00 36 1008.9
20260508231804 69 56 7.0 12.0 0.00 0.01 0.00 36 1008.9
20260508225306 69 70 4.0 7.0 0.00 0.01 0.00 36 1008.9
20260508224804 69 67 5.0 10.0 0.00 0.01 0.00 39 1008.9
20260508224304 68 42 5.0 12.0 0.00 0.01 0.00 36 1008.9
20260508223804 69 13 6.0 10.0 0.00 0.01 0.00 36 1008.9
20260508223305 69 88 6.0 12.0 0.00 0.01 0.00 36 1008.9
20260508222805 69 7 3.0 10.0 0.00 0.01 0.00 36 1008.9
20260508221804 69 133 3.0 6.0 0.00 0.01 0.00 37 1008.9
20260508220804 69 94 8.0 13.0 0.00 0.01 0.00 37 1008.9
20260508220304 69 87 5.0 9.0 0.00 0.01 0.00 36 1008.9
20260508215804 70 62 7.0 12.0 0.00 0.01 0.00 36 1008.9
20260508215306 70 1 5.0 9.0 0.00 0.01 0.00 35 1008.9
20260508214304 69 335 3.0 6.0 0.00 0.01 0.00 37 1008.9
20260508212804 71 344 5.0 10.0 0.00 0.01 0.00 37 1008.9
20260508211304 70 8 4.0 8.0 0.00 0.01 0.00 38 1008.9
20260508210804 69 346 5.0 9.0 0.00 0.01 0.00 37 1008.9
20260508204804 68 0 4.0 10.0 0.00 0.01 0.00 37 1008.9
20260508204304 69 4 5.0 8.0 0.00 0.01 0.00 40 1008.9
20260508202805 68 2 3.0 9.0 0.00 0.01 0.00 39 1009.2
20260508202307 67 48 6.0 12.0 0.00 0.01 0.00 39 1009.2
20260508201804 68 29 2.0 9.0 0.00 0.01 0.00 39 1009.2
20260508201304 67 342 6.0 9.0 0.00 0.01 0.00 39 1009.2
20260508195306 66 42 5.0 7.0 0.00 0.01 0.00 39 1009.2
20260508194303 67 35 5.0 9.0 0.00 0.01 0.00 39 1009.2
20260508193304 67 329 5.0 10.0 0.00 0.01 0.00 41 1009.2
20260508192306 65 156 3.0 7.0 0.00 0.01 0.00 42 1009.2
20260508190804 65 0 8.0 12.0 0.00 0.01 0.00 45 1009.2
20260508184804 65 52 6.0 10.0 0.00 0.01 0.00 44 1009.2
20260508183804 63 0 6.0 12.0 0.00 0.01 0.00 47 1009.2
20260508183304 62 38 3.0 12.0 0.00 0.01 0.00 47 1009.2
20260508182804 64 34 5.0 12.0 0.00 0.01 0.00 44 1009.2
20260508182306 64 32 8.0 12.0 0.00 0.01 0.00 46 1009.2